[[{"header":{"parameterUnit":"m.s-1","parameterCategory":1,"la1":30.2991,"la2":30.254,"lo1":-89.0895,"lo2":-89.0444,"dy":0.0017,"dx":0.0017,"nx":28,"ny":28,"refTime":"2025-04-15T03:00:00:Z","depth":0,"parameterNumber":2,"parameterNumberName":"U-component_of_WINDS"},"data":[0,0,0,0,0,0,0,0,0,0,0,0,0,0,0,0,0,0,0,0,0,0,0,0,0,0,0,0,0,0,0,0,0,0,0,0,0,0,0,0,0,0,0,0,0,0,0,0,0,0,0,0,0,0,0,0,0,0,-0.2237,-0.2236,0,-0.219,-0.2189,-0.2188,-0.2142,-0.2141,-0.2141,-0.214,-0.2092,-0.2091,-0.209,0,0,0,0,0,0,0,0,0,0,0,0,0,-0.2286,-0.2285,-0.2237,-0.2236,-0.2236,-0.219,-0.2189,-0.2188,-0.2142,-0.2141,-0.214,-0.214,-0.2092,-0.2091,-0.209,0,0,0,0,0,0,0,0,0,0,0,0,0,-0.2254,-0.2285,-0.2237,-0.2207,-0.2204,-0.219,-0.2189,-0.2188,-0.2142,-0.2141,-0.214,-0.2139,-0.2092,-0.2091,-0.209,-0.2102,0,0,-0.2087,-0.2087,0,0,0,0,0,0,0,0,-0.2256,-0.2252,-0.2212,-0.2209,-0.2205,-0.2171,-0.2188,-0.2159,-0.2142,-0.2166,-0.214,-0.2139,-0.2119,-0.2116,-0.2109,-0.21,-0.2098,-0.2087,-0.2086,-0.2086,-0.2086,0,0,0,0,0,0,0,-0.2258,-0.2254,-0.2218,-0.2211,-0.2207,-0.2195,-0.219,-0.2183,-0.2148,-0.2163,-0.216,-0.2155,-0.2117,-0.211,-0.2107,-0.2097,-0.2087,-0.2086,-0.2085,-0.2085,-0.2093,-0.2094,0,0,0,0,0,0,-0.2265,-0.2256,-0.222,-0.2217,-0.2229,-0.2195,-0.2189,-0.2183,-0.2148,-0.2142,-0.2156,-0.2153,-0.2112,-0.2109,-0.2105,-0.2116,-0.2086,-0.2085,-0.2084,-0.2093,-0.2094,-0.2095,0,0,0,0,0,0,-0.2266,-0.2262,-0.2221,-0.2235,-0.2229,-0.2195,-0.2189,-0.2182,-0.2175,-0.2142,-0.2136,-0.2155,-0.2111,-0.2107,-0.2103,-0.2114,-0.2084,-0.2083,-0.2092,-0.2093,-0.2094,-0.2138,0,0,0,0,0,0,-0.2268,-0.2263,-0.2268,-0.2236,-0.2229,-0.222,-0.2189,-0.2182,-0.2173,-0.2169,-0.214,-0.2134,-0.211,-0.2105,-0.2102,-0.2112,-0.2083,-0.209,-0.2092,-0.2094,-0.2135,-0.214,-0.2145,0,0,0,0,0,-0.227,-0.2282,-0.2268,-0.2264,-0.2234,-0.2221,-0.2217,-0.2189,-0.2175,-0.2179,-0.2157,-0.2135,-0.2113,-0.2105,-0.2101,-0.2111,-0.209,-0.2092,-0.2094,-0.2133,-0.2139,-0.2145,0,0,0,0,0,0,-0.2317,-0.2278,-0.2261,-0.2264,-0.2246,-0.2213,-0.2218,-0.2197,-0.2183,-0.218,-0.2146,-0.214,-0.2139,-0.2124,-0.2116,-0.2119,-0.2098,-0.2099,-0.2129,-0.2135,-0.214,-0.2144,-0.2082,0,0,0,0,0,-0.2327,-0.232,-0.2286,-0.2292,-0.2284,-0.2252,-0.2246,-0.2226,-0.2206,-0.2198,-0.2176,-0.2158,-0.2146,-0.214,-0.2128,-0.2132,-0.2125,-0.2137,-0.2142,-0.2146,-0.2148,-0.2148,-0.2153,-0.2101,-0.2101,-0.2101,0,0,-0.2349,-0.2327,-0.2325,-0.2301,-0.2284,-0.2278,-0.2246,-0.2241,-0.2235,-0.2197,-0.2192,-0.2175,-0.2152,-0.2152,-0.2151,-0.214,-0.216,-0.2148,-0.2152,-0.2151,-0.215,-0.2155,-0.216,-0.2102,-0.2102,-0.2102,0,0,-0.2385,-0.2368,-0.237,-0.2354,-0.233,-0.2308,-0.2309,-0.2279,-0.2266,-0.226,-0.2231,-0.2223,-0.2205,-0.2189,-0.2179,-0.2207,-0.2186,-0.2204,-0.2229,-0.223,-0.2234,-0.2237,-0.2247,-0.2251,-0.2205,-0.2206,-0.2206,0,-0.2416,-0.2405,-0.2374,-0.237,-0.236,-0.2324,-0.2326,-0.2311,-0.2285,-0.2278,-0.2265,-0.224,-0.2222,-0.2217,-0.2224,-0.2217,-0.2216,-0.2208,-0.2236,-0.2239,-0.2242,-0.225,-0.2254,-0.2208,-0.2208,-0.2207,-0.2207,0,-0.2443,-0.2435,-0.244,-0.2414,-0.2404,-0.2403,-0.2371,-0.2365,-0.2345,-0.2325,-0.2318,-0.2295,-0.2277,-0.2274,-0.2256,-0.2267,-0.226,-0.2242,-0.222,-0.2249,-0.2257,-0.226,-0.2211,-0.221,-0.221,-0.2209,0,0,-0.2509,-0.2465,-0.2467,-0.2454,-0.2424,-0.2417,-0.2413,-0.2395,-0.239,-0.2372,-0.2368,-0.2352,-0.2334,-0.2322,-0.2301,-0.2301,-0.2324,-0.2283,-0.2282,-0.2291,-0.2334,-0.2348,-0.2352,-0.2309,-0.231,-0.231,-0.2335,0,-0.254,-0.2532,-0.2504,-0.2504,-0.2496,-0.2461,-0.2457,-0.2438,-0.2418,-0.2408,-0.2386,-0.2375,-0.2353,-0.2346,-0.2344,-0.2322,-0.2332,-0.2319,-0.2305,-0.2304,-0.2312,-0.2356,-0.2371,-0.2396,-0.2338,-0.2339,-0.2339,0,-0.2576,-0.256,-0.2559,-0.2527,-0.2523,-0.252,-0.25,-0.2491,-0.2468,-0.2453,-0.2439,-0.2415,-0.2408,-0.2387,-0.2377,-0.2369,-0.2361,-0.2348,-0.2348,-0.2346,-0.2324,-0.2355,-0.2404,-0.2408,-0.2344,-0.2343,-0.2343,0,-0.2624,-0.2602,-0.2598,-0.2588,-0.2551,-0.255,-0.2535,-0.251,-0.25,-0.2483,-0.2476,-0.2458,-0.2448,-0.2434,-0.2405,-0.2393,-0.2398,-0.2375,-0.2385,-0.2386,-0.2389,-0.2389,-0.2437,-0.2383,-0.2383,-0.2383,-0.2383,0,-0.2663,-0.2664,-0.2619,-0.2617,-0.2616,-0.2583,-0.2583,-0.2564,-0.2542,-0.2535,-0.2503,-0.2497,-0.2459,-0.2448,-0.2425,-0.242,-0.2415,-0.2403,-0.2397,-0.2406,-0.2408,-0.2401,-0.2399,-0.2384,-0.2384,-0.2384,-0.2383,0,-0.2717,-0.2687,-0.2681,-0.2646,-0.2637,-0.2638,-0.2607,-0.2603,-0.2581,-0.2572,-0.2568,-0.2533,-0.2518,-0.2488,-0.2465,-0.2449,-0.2449,-0.2438,-0.2457,-0.2454,-0.2466,-0.2465,-0.2511,-0.2515,-0.2459,-0.246,-0.246,0,-0.2744,-0.2743,-0.2707,-0.27,-0.2686,-0.2675,-0.2664,-0.263,-0.2621,-0.2593,-0.2592,-0.2575,-0.2559,-0.2537,-0.251,-0.2492,-0.248,-0.2497,-0.2477,-0.2486,-0.248,-0.2481,-0.248,-0.2502,-0.2503,-0.2504,-0.2504,0,-0.2794,-0.2779,-0.2765,-0.2746,-0.2734,-0.2717,-0.2699,-0.2695,-0.2656,-0.2647,-0.2631,-0.2619,-0.2595,-0.2578,-0.2555,-0.2538,-0.2515,-0.251,-0.2512,-0.2521,-0.2532,-0.2526,-0.247,-0.251,-0.2509,-0.2509,-0.2508,-0.2508,-0.2835,-0.2832,-0.2807,-0.2792,-0.2774,-0.2757,-0.2751,-0.2727,-0.2714,-0.2692,-0.2672,-0.2658,-0.2632,-0.26,-0.2584,-0.2572,-0.256,-0.2563,-0.2563,-0.2564,-0.2568,-0.2534,-0.2568,-0.2567,-0.2567,-0.2567,-0.2567,0,-0.2883,-0.2864,-0.2851,-0.2826,-0.2814,-0.2792,-0.277,-0.2761,-0.2749,-0.2727,-0.2712,-0.2693,-0.2676,-0.2646,-0.2626,-0.2622,-0.2611,-0.2618,-0.2618,-0.2615,-0.258,-0.258,-0.2628,-0.2628,-0.2628,-0.2628,-0.2628,-0.2628,-0.2907,-0.2902,-0.2883,-0.2868,-0.2848,-0.2834,-0.2823,-0.2807,-0.2789,-0.277,-0.2755,-0.2736,-0.271,-0.2688,-0.267,-0.2662,-0.2656,-0.2667,-0.2655,-0.2623,-0.2617,-0.2612,-0.2612,-0.2666,-0.2666,-0.2691,-0.2691,-0.2691]},{"header":{"parameterUnit":"m.s-1","parameterCategory":1,"la1":30.2991,"la2":30.254,"lo1":-89.0895,"lo2":-89.0444,"dy":0.0017,"dx":0.0017,"nx":28,"ny":28,"refTime":"2025-04-15T03:00:00:Z","depth":0,"parameterNumber":3,"parameterNumberName":"V-component_of_WINDS"},"data":[0,0,0,0,0,0,0,0,0,0,0,0,0,0,0,0,0,0,0,0,0,0,0,0,0,0,0,0,0,0,0,0,0,0,0,0,0,0,0,0,0,0,0,0,0,0,0,0,0,0,0,0,0,0,0,0,0,0,-4.6124,-4.6125,0,-4.6167,-4.6168,-4.6168,-4.6188,-4.6188,-4.6188,-4.6188,-4.6225,-4.6226,-4.6227,0,0,0,0,0,0,0,0,0,0,0,0,0,-4.6056,-4.6057,-4.6124,-4.6125,-4.6126,-4.6167,-4.6168,-4.6168,-4.6188,-4.6188,-4.6188,-4.6188,-4.6225,-4.6226,-4.6227,0,0,0,0,0,0,0,0,0,0,0,0,0,-4.6091,-4.6058,-4.6124,-4.614,-4.6142,-4.6167,-4.6168,-4.6169,-4.6188,-4.6188,-4.6188,-4.6188,-4.6224,-4.6226,-4.6227,-4.6237,0,0,-4.6232,-4.6232,0,0,0,0,0,0,0,0,-4.6089,-4.6093,-4.6137,-4.6139,-4.6141,-4.6172,-4.6158,-4.6191,-4.6188,-4.617,-4.6188,-4.6188,-4.6207,-4.621,-4.6218,-4.6239,-4.6241,-4.6232,-4.6233,-4.6233,-4.6234,0,0,0,0,0,0,0,-4.6086,-4.6092,-4.6141,-4.6138,-4.6141,-4.6144,-4.6149,-4.6164,-4.6188,-4.6172,-4.6173,-4.6178,-4.6208,-4.6216,-4.6219,-4.6241,-4.6232,-4.6233,-4.6234,-4.6235,-4.6277,-4.6277,0,0,0,0,0,0,-4.6082,-4.6089,-4.614,-4.6143,-4.6115,-4.6146,-4.6151,-4.6162,-4.6188,-4.6192,-4.6178,-4.6179,-4.6214,-4.6217,-4.622,-4.6237,-4.6233,-4.6235,-4.6236,-4.6277,-4.6277,-4.6277,0,0,0,0,0,0,-4.6081,-4.6086,-4.6138,-4.6117,-4.6124,-4.6147,-4.6159,-4.6163,-4.6172,-4.6193,-4.6197,-4.6183,-4.6214,-4.6218,-4.6234,-4.6238,-4.6236,-4.6237,-4.6277,-4.6277,-4.6277,-4.6268,0,0,0,0,0,0,-4.6079,-4.6086,-4.609,-4.6117,-4.6125,-4.6152,-4.6159,-4.6164,-4.6175,-4.6176,-4.6198,-4.6202,-4.6214,-4.6232,-4.6236,-4.624,-4.6238,-4.6276,-4.6277,-4.6277,-4.6268,-4.6268,-4.6268,0,0,0,0,0,-4.6076,-4.6083,-4.609,-4.6096,-4.6131,-4.6153,-4.6157,-4.6173,-4.6175,-4.618,-4.6195,-4.6201,-4.6237,-4.6234,-4.6238,-4.6243,-4.6276,-4.6277,-4.6277,-4.6268,-4.6268,-4.6268,0,0,0,0,0,0,-4.6053,-4.6087,-4.6095,-4.6111,-4.613,-4.6156,-4.6162,-4.6172,-4.6187,-4.6188,-4.6205,-4.621,-4.6225,-4.6235,-4.6231,-4.6256,-4.6257,-4.6259,-4.6249,-4.6249,-4.6249,-4.6246,-4.6239,0,0,0,0,0,-4.6051,-4.6067,-4.6095,-4.6106,-4.6116,-4.6138,-4.6147,-4.6159,-4.6177,-4.6184,-4.6199,-4.6216,-4.6231,-4.624,-4.6255,-4.627,-4.6276,-4.6276,-4.6276,-4.6275,-4.6276,-4.6288,-4.6289,-4.6279,-4.6279,-4.6279,0,0,-4.6044,-4.6065,-4.6073,-4.6103,-4.6118,-4.6134,-4.6143,-4.6159,-4.6171,-4.6185,-4.6203,-4.6216,-4.6235,-4.6251,-4.6259,-4.626,-4.6281,-4.6276,-4.6276,-4.6277,-4.6289,-4.629,-4.6291,-4.6279,-4.6279,-4.6279,0,0,-4.6041,-4.6058,-4.6072,-4.6088,-4.6113,-4.6128,-4.6132,-4.6158,-4.6168,-4.6187,-4.6199,-4.6213,-4.6238,-4.6253,-4.6263,-4.6272,-4.6279,-4.6276,-4.6275,-4.6287,-4.6287,-4.6288,-4.6293,-4.6295,-4.6277,-4.6277,-4.6277,0,-4.6029,-4.6056,-4.6076,-4.6093,-4.6107,-4.6125,-4.6139,-4.6153,-4.618,-4.6189,-4.6191,-4.6226,-4.624,-4.6262,-4.6265,-4.6272,-4.6277,-4.6273,-4.6286,-4.6287,-4.6288,-4.6293,-4.6295,-4.6276,-4.6277,-4.6277,-4.6277,0,-4.6042,-4.606,-4.6068,-4.6098,-4.6113,-4.6127,-4.615,-4.6162,-4.6174,-4.6189,-4.6209,-4.6227,-4.6248,-4.6254,-4.6263,-4.6278,-4.6279,-4.6283,-4.6285,-4.6288,-4.6294,-4.6295,-4.6276,-4.6276,-4.6276,-4.6276,0,0,-4.6022,-4.6068,-4.607,-4.6087,-4.6117,-4.6131,-4.6148,-4.6172,-4.6183,-4.6202,-4.6217,-4.6241,-4.6247,-4.6259,-4.627,-4.628,-4.6289,-4.6283,-4.6284,-4.6285,-4.631,-4.6307,-4.6309,-4.6295,-4.6295,-4.6295,-4.6309,0,-4.6024,-4.6058,-4.608,-4.6104,-4.6123,-4.6143,-4.6158,-4.6178,-4.6194,-4.6211,-4.6227,-4.6245,-4.625,-4.6258,-4.6269,-4.6286,-4.6294,-4.6285,-4.6309,-4.6309,-4.6304,-4.6311,-4.6308,-4.632,-4.6311,-4.6311,-4.6311,0,-4.6031,-4.6055,-4.6082,-4.6116,-4.6125,-4.6138,-4.6164,-4.618,-4.6205,-4.6215,-4.6232,-4.6245,-4.6264,-4.6265,-4.6292,-4.6285,-4.6296,-4.6306,-4.6307,-4.631,-4.6311,-4.6316,-4.6323,-4.6326,-4.6314,-4.6314,-4.6314,0,-4.6017,-4.6055,-4.6078,-4.609,-4.6129,-4.6139,-4.6155,-4.618,-4.6194,-4.6216,-4.6226,-4.6249,-4.6261,-4.6278,-4.6297,-4.6296,-4.6323,-4.6325,-4.6333,-4.6333,-4.6338,-4.6337,-4.6348,-4.6343,-4.6343,-4.6343,-4.6343,0,-4.6017,-4.6034,-4.6073,-4.6087,-4.6107,-4.6132,-4.615,-4.6168,-4.6191,-4.6209,-4.6226,-4.6241,-4.6265,-4.6284,-4.6299,-4.6321,-4.6325,-4.6335,-4.6338,-4.6334,-4.6333,-4.6341,-4.6341,-4.6344,-4.6344,-4.6343,-4.6343,0,-4.6004,-4.603,-4.6057,-4.6094,-4.6104,-4.6117,-4.6148,-4.6163,-4.6181,-4.6204,-4.621,-4.6238,-4.6262,-4.6283,-4.6313,-4.6323,-4.6346,-4.635,-4.6339,-4.6341,-4.6349,-4.6348,-4.6366,-4.6371,-4.6362,-4.6362,-4.6362,0,-4.6003,-4.6017,-4.6058,-4.6073,-4.609,-4.6113,-4.613,-4.6155,-4.6172,-4.6204,-4.6214,-4.624,-4.6262,-4.6299,-4.6321,-4.6345,-4.6351,-4.6356,-4.6354,-4.635,-4.6353,-4.6352,-4.6355,-4.6355,-4.6355,-4.6355,-4.6355,0,-4.5999,-4.6013,-4.6038,-4.6069,-4.6089,-4.6113,-4.6138,-4.6148,-4.6179,-4.6196,-4.6223,-4.6241,-4.6274,-4.63,-4.6328,-4.6343,-4.6354,-4.6356,-4.636,-4.6355,-4.6349,-4.6355,-4.634,-4.6355,-4.6355,-4.6355,-4.6355,-4.6355,-4.5993,-4.6009,-4.6041,-4.6069,-4.6092,-4.6116,-4.6133,-4.6156,-4.6179,-4.6211,-4.6225,-4.6252,-4.6279,-4.6318,-4.6334,-4.6356,-4.6358,-4.6362,-4.6363,-4.6364,-4.6365,-4.6346,-4.636,-4.636,-4.6361,-4.6361,-4.6361,0,-4.5992,-4.6016,-4.6041,-4.6078,-4.6101,-4.6114,-4.6143,-4.616,-4.6186,-4.6212,-4.6235,-4.6267,-4.6294,-4.632,-4.6348,-4.636,-4.6366,-4.6366,-4.6366,-4.637,-4.636,-4.6356,-4.6361,-4.6361,-4.6361,-4.6361,-4.6361,-4.6361,-4.5994,-4.6022,-4.6041,-4.6081,-4.6104,-4.6134,-4.615,-4.6173,-4.6194,-4.6231,-4.6255,-4.6273,-4.63,-4.633,-4.6356,-4.6363,-4.6372,-4.6372,-4.638,-4.6371,-4.637,-4.637,-4.6366,-4.6373,-4.6373,-4.6388,-4.6389,-4.6389]}]]